Overview Statistics Trail Chart Weather Telemetry Raw packets
 

This is the latest recevied weather packets stored in our database for station/object 4S6DRJ-13. If no packets are shown the sender has not sent any weather packets the latest 10 day(s).

<< 70 71 72 73 74 75 76 >>
Time Temp. Humidity Pressure Rain* Wind** Luminosity Snow
1788346349 29.44° C 80% 1007.6 hPa 0 mm 1.34 m/s, 199° 158 W/m² -
1788346288 29.44° C 80% 1007.8 hPa 0 mm 1.34 m/s, 318° 169 W/m² -
1788346227 29.44° C 81% 1007.5 hPa 0 mm 0 m/s 172 W/m² -
1788346166 29.44° C 80% 1007.7 hPa 0 mm 1.34 m/s, 325° 174 W/m² -
1788346105 29.44° C 80% 1007.7 hPa 0 mm 0.89 m/s, 192° 172 W/m² -
1788346044 29.44° C 79% 1007.5 hPa 0 mm 0.89 m/s, 214° 165 W/m² -
1788345983 29.44° C 79% 1007.5 hPa 0 mm 0.89 m/s, 313° 149 W/m² -
1788345922 29.44° C 79% 1007.5 hPa 0 mm 1.34 m/s, 283° 138 W/m² -
1788345861 29.44° C 79% 1007.3 hPa 0 mm 0.45 m/s, 223° 132 W/m² -
1788345800 29.44° C 79% 1007.6 hPa 0 mm 0.45 m/s, 146° 129 W/m² -
1788345739 29.44° C 79% 1007.4 hPa 0 mm 0 m/s 133 W/m² -
1788345678 29.44° C 78% 1007.4 hPa 0 mm 0.89 m/s, 167° 143 W/m² -
1788345617 29.44° C 78% 1007.5 hPa 0 mm 1.79 m/s, 236° 157 W/m² -
1788345556 30° C 78% 1007.5 hPa 0 mm 1.34 m/s, 292° 171 W/m² -
1788345495 30° C 78% 1007.5 hPa 0 mm 0.89 m/s, 217° 183 W/m² -
1788345434 30° C 78% 1007.6 hPa 0 mm 0.89 m/s, 233° 169 W/m² -
1788345373 30° C 77% 1007.6 hPa 0 mm 0.45 m/s, 246° 136 W/m² -
1788345312 30° C 76% 1007.5 hPa 0 mm 0.89 m/s, 191° 136 W/m² -
1788345251 30° C 76% 1007.6 hPa 0 mm 0.89 m/s, 229° 136 W/m² -
1788345190 30° C 75% 1007.7 hPa 0 mm 1.34 m/s, 237° 125 W/m² -
1788345129 30° C 75% 1007.4 hPa 0 mm 1.34 m/s, 343° 131 W/m² -
1788345068 30.56° C 75% 1007.5 hPa 0 mm 0.89 m/s, 211° 158 W/m² -
1788345007 30.56° C 75% 1007.5 hPa 0 mm 0.45 m/s, 340° 207 W/m² -
1788344946 30.56° C 74% 1007.6 hPa 0 mm 1.34 m/s, 347° 243 W/m² -
1788344885 30.56° C 75% 1007.5 hPa 0 mm 0.89 m/s, 181° 327 W/m² -

* Rain latest hour (hover to see other rain measurements)
** Current wind speed in m/s (hover to see current wind gust speed)